Content
SEND FEEDBACK

Daily
Averages
Monthly
Summary
United States of America

UPI, GUAM


Home > North America > United States > Guam
Elevation: 53 feet     Latitude: 13 34N     Longitude: 144 55E

WEATHER
 
SELECT A DAY
Number of Records: 214,141;   Date Range: 1/1/95 - 10/30/14
 
SHARE

PRINT THIS DATA

[ ← Previous Day ]
WEATHER ALMANAC - JANUARY 3, 2014
[ Next Day → ]
[ °C ]   °F
Weather ElementAverageHighLow
Temperature81.1 °F84.9 °F (1:54 pm)77 °F (6:54 am)
Dewpoint72.1 °F73.9 °F (1:54 am)69.1 °F (4:54 pm)
Humidity74.5 %90 % (6:54 am)63 % (1:54 pm)
Barometer29.87 in29.92 in (8:54 am)29.82 in (2:54 pm)
Wind Speed13.6 mph23 mph (11:46 am)
Wind Gust29.9 mph (12:54 pm)
Weather ElementAverage
Visibility10 mi
Wind DirectionENE (72.7 °)

Weather ElementTotal
Precipitation---
Cooling Degree Days16 (Base 65)
Growing Degree Days31 (Base 50)
Averaged from 26 records on January 3, 2014
WEATHER CONDITIONS BREAKOUT
WIND DIRECTION BREAKOUT
WEATHER BY HOUR - JANUARY 3, 2014
[ °C ]   °F
Local TimeTemperatureDewpointHumidityBarometerVisibilityWind DirectionWind SpeedGust SpeedPrecipitationEventsConditions
1:54 AM78.1 °F73.9 °F87 %29.88 in10.0 miENE (60°)12.7 mphClear
2:54 AM78.1 °F73.9 °F87 %29.87 in10.0 miENE (60°)12.7 mphClear
3:54 AM78.1 °F73.9 °F87 %29.86 in10.0 miENE (60°)12.7 mphScattered Clouds
4:54 AM78.1 °F73.9 °F87 %29.87 in10.0 miENE (70°)10.4 mphPartly Cloudy
5:54 AM78.1 °F73.9 °F87 %29.88 in10.0 miENE (60°)10.4 mphClear
6:54 AM77.0 °F73.9 °F90 %29.89 in10.0 miNE (50°)8.1 mphPartly Cloudy
7:54 AM80.1 °F73.9 °F81 %29.91 in10.0 miENE (60°)10.4 mphPartly Cloudy
8:54 AM82.0 °F73.9 °F76 %29.92 in10.0 miEast (80°)12.7 mph20.7 mphPartly Cloudy
9:54 AM82.0 °F73.9 °F76 %29.92 in10.0 miENE (70°)19.6 mphPartly Cloudy
10:54 AM84.0 °F73.0 °F69 %29.90 in10.0 miEast (90°)15.0 mph21.9 mphScattered Clouds
11:46 AM84.2 °F71.6 °F66 %29.90 in10.0 miENE (60°)23.0 mph28.8 mphMostly Cloudy
11:54 AM82.9 °F73.0 °F72 %29.88 in10.0 miEast (80°)16.1 mph25.3 mphMostly Cloudy
12:07 PM84.2 °F73.4 °F70 %29.89 in10.0 miENE (70°)18.4 mph27.6 mphMostly Cloudy
12:16 PM82.4 °F73.4 °F74 %29.89 in10.0 miEast (80°)19.6 mph27.6 mphMostly Cloudy
12:54 PM84.0 °F73.9 °F72 %29.85 in10.0 miEast (90°)17.3 mph29.9 mphMostly Cloudy
1:54 PM84.9 °F71.1 °F63 %29.83 in10.0 miEast (80°)19.6 mph28.8 mphPartly Cloudy
2:54 PM84.9 °F71.1 °F63 %29.82 in10.0 miEast (80°)15.0 mph26.5 mphPartly Cloudy
3:54 PM84.0 °F70.0 °F63 %29.82 in10.0 miEast (80°)17.3 mph23.0 mphClear
4:54 PM82.9 °F69.1 °F63 %29.83 in10.0 miEast (80°)17.3 mph23.0 mphPartly Cloudy
5:54 PM80.1 °F70.0 °F71 %29.84 in10.0 miEast (90°)9.2 mphPartly Cloudy
6:54 PM80.1 °F70.0 °F71 %29.86 in10.0 miEast (80°)9.2 mphScattered Clouds
7:54 PM80.1 °F71.1 °F74 %29.88 in10.0 miENE (70°)10.4 mphScattered Clouds
8:54 PM80.1 °F70.0 °F71 %29.88 in10.0 miEast (80°)8.1 mphMostly Cloudy
9:54 PM79.0 °F69.1 °F72 %29.88 in10.0 miENE (60°)10.4 mphPartly Cloudy
10:54 PM79.0 °F69.1 °F72 %29.88 in10.0 miENE (70°)10.4 mphPartly Cloudy
11:54 PM79.0 °F70.0 °F74 %29.88 in10.0 miEast (80°)8.1 mphPartly Cloudy
Hourly data recorded from PGUM, located miles away from Upi, Guam







STORIES FROM OUR PARTNERS